CW4167 Weather Reports


Display with metric or nautical units.
time (UTC)temp
F
wind
direction
speed
MPH
gust
MPH
rain 1hr
in
rain 24hr
in
rain mn
in
humidity
%
barometer
mb
20260902041705 56 168 6.0 13.0 0.00 0.06 0.01 91 1012.8
20260902040707 56 185 6.0 8.0 0.00 0.06 0.01 91 1012.7
20260902040206 56 159 6.0 10.0 0.00 0.06 0.01 91 1012.8
20260902035705 56 184 6.0 13.0 0.00 0.06 0.01 91 1012.8
20260902034707 55 172 6.0 10.0 0.00 0.06 0.01 91 1012.8
20260902033706 55 168 5.0 8.0 0.00 0.06 0.01 91 1012.8
20260902032208 55 181 5.0 7.0 0.00 0.06 0.01 91 1013.0
20260902031708 55 201 5.0 7.0 0.01 0.06 0.01 91 1013.0
20260902031206 55 186 3.0 6.0 0.01 0.06 0.01 91 1012.9
20260902030706 55 190 6.0 8.0 0.01 0.06 0.01 91 1012.9
20260902024706 54 176 3.0 6.0 0.01 0.06 0.01 90 1012.9
20260902024208 54 176 5.0 6.0 0.01 0.06 0.01 90 1013.0
20260902023208 54 166 3.0 6.0 0.01 0.06 0.01 90 1012.9
20260902022706 54 156 2.0 5.0 0.01 0.06 0.01 90 1012.9
20260902022208 55 171 3.0 6.0 0.01 0.06 0.01 90 1012.9
20260902020706 54 174 4.0 7.0 0.00 0.05 0.00 90 1012.9
20260902020207 54 198 3.0 7.0 0.00 0.05 0.00 90 1012.9
20260902015707 54 174 3.0 6.0 0.00 0.05 0.00 90 1012.9
20260902015205 55 174 4.0 5.0 0.00 0.05 0.00 90 1012.8
20260902014705 55 175 2.0 5.0 0.00 0.05 0.00 90 1012.9
20260902014206 55 182 3.0 7.0 0.00 0.05 0.00 90 1012.9
20260902013206 54 201 4.0 7.0 0.00 0.05 0.00 90 1012.8
20260902012206 54 183 4.0 6.0 0.00 0.05 0.00 89 1012.8
20260902011707 54 195 2.0 5.0 0.00 0.05 0.00 89 1012.8
20260902011206 54 202 2.0 6.0 0.00 0.05 0.00 89 1012.8
20260902010706 55 219 2.0 6.0 0.00 0.05 0.00 89 1012.8
20260902005205 55 189 2.0 3.0 0.00 0.05 0.00 89 1013.0
20260902004705 55 211 3.0 5.0 0.00 0.05 0.00 89 1013.0
20260902002705 55 247 5.0 7.0 0.00 0.05 0.00 89 1013.0
20260902002205 55 237 5.0 6.0 0.00 0.05 0.00 88 1013.0
20260902001706 55 225 4.0 6.0 0.00 0.05 0.00 88 1013.1
20260901235705 56 249 2.0 6.0 0.00 0.05 0.00 88 1013.1
20260901233705 56 233 3.0 6.0 0.00 0.05 0.00 88 1013.2
20260901233207 57 266 2.0 5.0 0.00 0.05 0.00 87 1013.3
20260901231706 57 267 5.0 14.0 0.00 0.05 0.00 88 1013.3
20260901225706 58 269 6.0 13.0 0.00 0.05 0.00 88 1013.1
20260901224206 58 265 6.0 17.0 0.00 0.06 0.00 89 1013.0
20260901223705 58 267 9.0 14.0 0.00 0.06 0.00 89 1013.0
20260901222705 58 277 7.0 14.0 0.00 0.06 0.00 89 1012.9
20260901220706 58 236 3.0 7.0 0.00 0.06 0.00 89 1012.8
20260901215705 58 238 2.0 5.0 0.00 0.06 0.06 89 1012.8
20260901215206 58 252 1.0 6.0 0.00 0.06 0.06 89 1012.8
20260901211705 59 270 2.0 6.0 0.00 0.06 0.06 89 1012.7
20260901211205 59 244 4.0 5.0 0.00 0.06 0.06 89 1012.6
20260901210206 59 233 3.0 5.0 0.00 0.06 0.06 89 1012.5
20260901205205 59 244 3.0 5.0 0.00 0.06 0.06 89 1012.5
20260901204706 59 264 2.0 8.0 0.00 0.06 0.06 89 1012.5
20260901204205 59 244 5.0 9.0 0.00 0.06 0.06 89 1012.4
20260901203706 60 245 3.0 5.0 0.00 0.06 0.06 89 1012.4
20260901200705 60 246 5.0 8.0 0.03 0.07 0.06 88 1012.2
20260901200207 60 249 5.0 9.0 0.03 0.07 0.06 88 1012.2
20260901194705 60 232 4.0 6.0 0.03 0.09 0.06 87 1012.1
20260901194205 60 241 2.0 6.0 0.03 0.09 0.06 87 1012.1
20260901193206 61 253 5.0 7.0 0.03 0.09 0.06 86 1012.0
20260901192706 61 251 4.0 7.0 0.03 0.09 0.06 86 1012.0
20260901191705 61 260 6.0 10.0 0.03 0.09 0.06 85 1012.0
20260901190205 61 263 3.0 6.0 0.00 0.05 0.03 84 1011.8
20260901185705 61 275 3.0 7.0 0.00 0.05 0.03 83 1011.8
20260901184205 62 262 4.0 7.0 0.00 0.05 0.03 82 1011.5
20260901183206 62 274 3.0 7.0 0.00 0.05 0.03 80 1011.5
20260901182705 63 268 6.0 8.0 0.00 0.05 0.03 80 1011.5
20260901182205 63 270 5.0 7.0 0.00 0.05 0.03 79 1011.5
20260901180205 64 243 6.0 8.0 0.00 0.05 0.03 77 1011.4
20260901173706 66 267 11.0 15.0 0.00 0.05 0.03 75 1011.0
20260901164207 68 300 5.0 13.0 0.00 0.05 0.03 73 1010.7
20260901163705 68 251 7.0 14.0 0.00 0.05 0.03 72 1010.7
20260901162705 69 263 7.0 13.0 0.00 0.05 0.03 70 1010.7
20260901162204 69 256 10.0 17.0 0.00 0.05 0.03 71 1010.6
20260901161205 69 256 7.0 16.0 0.00 0.05 0.03 73 1010.6
20260901154705 68 298 8.0 17.0 0.00 0.05 0.03 73 1010.6
20260901153707 68 267 10.0 17.0 0.00 0.06 0.03 73 1010.6
20260901152208 68 257 10.0 16.0 0.00 0.06 0.03 74 1010.5
20260901151705 68 261 7.0 17.0 0.00 0.07 0.03 75 1010.4
20260901151206 68 270 9.0 16.0 0.00 0.10 0.03 76 1010.4
20260901150705 68 227 13.0 23.0 0.00 0.11 0.03 77 1010.4
20260901150206 67 230 5.0 15.0 0.00 0.11 0.03 79 1010.5
20260901145707 66 231 8.0 14.0 0.00 0.11 0.03 78 1010.5
20260901145206 66 244 7.0 10.0 0.00 0.11 0.03 78 1010.5
20260901144205 67 243 9.0 16.0 0.00 0.11 0.03 77 1010.5
20260901142706 68 239 9.0 15.0 0.00 0.11 0.03 74 1010.4
20260901142205 68 258 7.0 14.0 0.00 0.11 0.03 73 1010.4
20260901141705 69 241 5.0 17.0 0.00 0.11 0.03 73 1010.3
20260901141205 69 252 9.0 17.0 0.00 0.11 0.03 72 1010.3
20260901134707 70 235 10.0 20.0 0.00 0.11 0.03 69 1010.1
20260901134206 70 238 11.0 17.0 0.00 0.11 0.03 69 1010.1
20260901133705 70 258 8.0 16.0 0.00 0.11 0.03 69 1010.1
20260901132706 69 275 8.0 16.0 0.00 0.11 0.03 72 1010.1
20260901132205 69 277 9.0 14.0 0.00 0.11 0.03 72 1010.1
20260901131704 68 285 9.0 14.0 0.00 0.11 0.03 72 1010.1
20260901130707 68 300 10.0 17.0 0.00 0.11 0.03 71 1010.1
20260901125704 69 274 5.0 13.0 0.00 0.11 0.03 72 1010.0
20260901125204 69 287 6.0 13.0 0.00 0.11 0.03 72 1010.0
20260901124707 69 294 11.0 15.0 0.00 0.11 0.03 72 1010.0
20260901123206 69 302 6.0 13.0 0.00 0.11 0.03 73 1010.0
20260901122706 69 298 9.0 14.0 0.00 0.11 0.03 72 1010.0
20260901122207 70 289 10.0 15.0 0.00 0.11 0.03 72 1010.0
20260901121707 70 248 8.0 14.0 0.00 0.11 0.03 71 1009.9
20260901120206 69 273 9.0 16.0 0.00 0.11 0.03 74 1009.9
20260901115706 69 273 9.0 14.0 0.00 0.11 0.03 74 1009.9
20260901115207 68 259 5.0 14.0 0.00 0.11 0.03 75 1010.0
20260901113707 67 274 9.0 13.0 0.00 0.11 0.03 76 1010.0
20260901112206 67 286 8.0 14.0 0.00 0.11 0.03 75 1009.9
20260901111206 67 287 7.0 14.0 0.00 0.11 0.03 77 1009.8
20260901110206 67 304 6.0 10.0 0.00 0.11 0.03 77 1009.8
20260901105706 67 289 8.0 15.0 0.00 0.11 0.03 76 1009.7
20260901104706 68 287 13.0 18.0 0.00 0.11 0.03 77 1009.7
20260901103706 67 291 5.0 10.0 0.00 0.12 0.03 78 1009.8
20260901102706 67 254 10.0 14.0 0.00 0.12 0.03 79 1009.7
20260901101207 65 278 5.0 13.0 0.00 0.12 0.03 84 1009.5
20260901100707 65 297 7.0 13.0 0.00 0.12 0.03 83 1009.5
20260901095206 65 266 6.0 10.0 0.00 0.12 0.03 85 1009.5
20260901094706 64 295 8.0 14.0 0.00 0.12 0.03 85 1009.4
20260901093706 64 262 10.0 15.0 0.01 0.16 0.03 85 1009.3
20260901093206 64 272 6.0 13.0 0.01 0.19 0.03 87 1009.3
20260901092706 64 265 5.0 10.0 0.01 0.19 0.03 87 1009.3
20260901091706 64 282 7.0 14.0 0.01 0.19 0.03 87 1009.3
20260901090206 64 311 3.0 6.0 0.01 0.19 0.03 89 1009.3
20260901085707 63 312 5.0 7.0 0.01 0.19 0.03 89 1009.3
20260901085206 63 303 3.0 13.0 0.01 0.19 0.03 88 1009.3
20260901084706 63 326 6.0 10.0 0.01 0.19 0.03 88 1009.2
20260901083706 63 280 5.0 9.0 0.00 0.18 0.02 88 1009.2
20260901083207 63 285 7.0 10.0 0.00 0.18 0.02 88 1009.1
20260901080708 63 273 5.0 10.0 0.00 0.18 0.02 92 1008.7
20260901075205 62 280 6.0 14.0 0.00 0.18 0.02 93 1008.6
20260901073706 61 264 5.0 15.0 0.01 0.18 0.02 93 1008.5
20260901073205 61 294 4.0 8.0 0.01 0.18 0.02 93 1008.4
20260901072708 61 255 7.0 15.0 0.01 0.18 0.02 93 1008.4
20260901072206 61 288 7.0 10.0 0.01 0.18 0.02 93 1008.4
20260901071206 61 293 3.0 13.0 0.01 0.18 0.02 93 1008.3
20260901070207 60 295 4.0 6.0 0.01 0.18 0.02 93 1008.2
20260901065706 60 286 5.0 9.0 0.01 0.19 0.02 93 1008.2
20260901065205 60 297 6.0 10.0 0.01 0.20 0.02 93 1008.2
20260901064706 60 295 5.0 10.0 0.01 0.20 0.02 93 1008.1
20260901063706 60 286 5.0 9.0 0.00 0.19 0.01 93 1008.1
20260901063205 60 292 7.0 13.0 0.00 0.19 0.01 93 1008.1
20260901062705 60 287 6.0 9.0 0.00 0.19 0.01 93 1007.9
20260901060206 60 287 5.0 7.0 0.00 0.19 0.01 93 1007.7
20260901054205 60 277 3.0 7.0 0.00 0.19 0.01 92 1007.6
20260901053205 59 232 3.0 5.0 0.00 0.19 0.01 93 1007.5
20260901052207 59 199 3.0 6.0 0.00 0.19 0.01 92 1007.5
20260901051706 59 233 1.0 3.0 0.00 0.19 0.01 93 1007.4
20260901050705 58 232 3.0 5.0 0.00 0.20 0.01 92 1007.4
20260901050206 58 249 3.0 6.0 0.00 0.20 0.01 92 1007.2
20260901045705 58 257 2.0 6.0 0.00 0.20 0.01 92 1007.2
20260901045206 58 254 2.0 5.0 0.00 0.20 0.01 92 1007.2
20260901043205 58 244 2.0 5.0 0.00 0.20 0.01 92 1007.0
20260901042706 58 249 2.0 5.0 0.00 0.20 0.01 92 1007.0
20260901042206 58 232 3.0 6.0 0.00 0.20 0.01 92 1007.0